Natchez, MS

6:41 PM CDT on May 23, 2017 (GMT -0500)
Hardy-Anders-Adams County

Weather History for KHEZ - November, 2013

Change the Weather History Date:

Monday, November 4, 2013

  Actual Average Record
Temperature  
Mean Temperature 58 °F -  
Max Temperature 71 °F 70 °F 84 °F (1978)
Min Temperature 44 °F 47 °F 26 °F (1991)
Degree Days  
Heating Degree Days 8    
Growing Degree Days 8 (Base 50)    
Moisture  
Dew Point 49 °F    
Average Humidity 70    
Maximum Humidity 93    
Minimum Humidity 46    
Precipitation  
Precipitation 0.06 in - - ()
Sea Level Pressure  
Sea Level Pressure 30.18 in    
Wind  
Wind Speed 6 mph (SE)    
Max Wind Speed 16 mph    
Max Gust Speed 23 mph    
Visibility 10 miles    
Events      
Averages and records for this station are not official NWS values.
T = Trace of Precipitation, MM = Missing Value Source: NWS Daily Summary

Daily Weather History Graph

Daily Weather History Graph

Search for Another Location

Airport or City:

Trip Planner

Search our weather history database for the weather conditions in past years. The results will help you decide how hot, cold, wet, or windy it might be!

Date:

Astronomy

Nov. 04, 2013 Rise Set
Actual Time 6:23 AM CST 5:13 PM CST
Civil Twilight 5:58 AM CST 5:38 PM CST
Nautical Twilight 5:29 AM CST 6:07 PM CST
Astronomical Twilight 5:01 AM CST 6:35 PM CST
Moon 7:31 AM CST (11/4) 6:22 PM CST (11/4)
Length of Visible Light 11h 39m
Length of Day
10h 49m
New Moon, 2% of the Moon is Illuminated
Nov 4
New Moon
Nov 9
First Quarter
Nov 17
Full
Nov 25
Last Quarter
Dec 2
New

Hourly Weather History & Observations

Time (CST) Temp. Windchill Dew Point Humidity Pressure Visibility Wind Dir Wind Speed Gust Speed Precip Events Conditions
12:15 AM 46.4 °F 45.2 °F 42.8 °F 87% 30.17 in 10.0 mi SSE 3.5 mph - N/A   Clear
12:35 AM 46.4 °F 45.2 °F 42.8 °F 87% 30.18 in 10.0 mi SSE 3.5 mph - N/A   Clear
12:55 AM 46.4 °F 44.3 °F 42.8 °F 87% 30.18 in 10.0 mi SSE 4.6 mph - N/A   Clear
1:15 AM 48.2 °F - 44.6 °F 87% 30.17 in 10.0 mi Calm Calm - N/A   Clear
1:35 AM 46.4 °F 45.2 °F 42.8 °F 87% 30.17 in 10.0 mi SE 3.5 mph - N/A   Clear
1:55 AM 46.4 °F 44.3 °F 42.8 °F 87% 30.17 in 10.0 mi SSE 4.6 mph - N/A   Clear
2:15 AM 48.2 °F - 44.6 °F 87% 30.17 in 10.0 mi SSE 5.8 mph - N/A   Clear
2:35 AM 46.4 °F 43.5 °F 44.6 °F 93% 30.17 in 10.0 mi SSE 5.8 mph - N/A   Clear
2:55 AM 46.4 °F 44.3 °F 42.8 °F 87% 30.16 in 10.0 mi SSE 4.6 mph - N/A   Clear
3:15 AM 46.4 °F 43.5 °F 42.8 °F 87% 30.16 in 10.0 mi South 5.8 mph - N/A   Clear
3:35 AM 46.4 °F 44.3 °F 42.8 °F 87% 30.16 in 10.0 mi SSE 4.6 mph - N/A   Clear
3:55 AM 46.4 °F 42.9 °F 42.8 °F 87% 30.15 in 10.0 mi SSE 6.9 mph - N/A   Clear
4:15 AM 46.4 °F 45.2 °F 42.8 °F 87% 30.16 in 10.0 mi SSE 3.5 mph - N/A   Clear
4:35 AM 46.4 °F - 42.8 °F 87% 30.18 in 10.0 mi Calm Calm - N/A   Clear
4:55 AM 44.6 °F - 42.8 °F 93% 30.18 in 10.0 mi Calm Calm - N/A   Clear
5:15 AM 44.6 °F - 41.0 °F 87% 30.17 in 10.0 mi Calm Calm - N/A   Clear
5:35 AM 44.6 °F - 42.8 °F 93% 30.17 in 10.0 mi Calm Calm - N/A   Clear
5:55 AM 46.4 °F - 42.8 °F 87% 30.18 in 10.0 mi Calm Calm - N/A   Clear
6:15 AM 44.6 °F - 42.8 °F 93% 30.18 in 10.0 mi Calm Calm - N/A   Partly Cloudy
6:35 AM 46.4 °F 43.5 °F 42.8 °F 87% 30.18 in 10.0 mi ESE 5.8 mph - N/A   Partly Cloudy
6:55 AM 51.8 °F - 44.6 °F 76% 30.19 in 10.0 mi ESE 6.9 mph - N/A   Partly Cloudy
7:15 AM 51.8 °F - 44.6 °F 76% 30.21 in 10.0 mi ESE 5.8 mph - N/A   Mostly Cloudy
7:35 AM 53.6 °F - 44.6 °F 72% 30.22 in 10.0 mi ESE 6.9 mph - N/A   Overcast
7:55 AM 53.6 °F - 44.6 °F 72% 30.22 in 10.0 mi ESE 9.2 mph - N/A   Scattered Clouds
8:15 AM 57.2 °F - 46.4 °F 67% 30.22 in 10.0 mi ESE 9.2 mph - N/A   Clear
8:35 AM 57.2 °F - 46.4 °F 67% 30.23 in 10.0 mi ESE 8.1 mph - N/A   Clear
8:55 AM 60.8 °F - 46.4 °F 59% 30.23 in 10.0 mi ESE 10.4 mph - N/A   Clear
9:15 AM 62.6 °F - 48.2 °F 59% 30.23 in 10.0 mi SE 9.2 mph - N/A   Clear
9:35 AM 64.4 °F - 50.0 °F 59% 30.24 in 10.0 mi SE 15.0 mph 23.0 mph N/A   Clear
9:55 AM 66.2 °F - 51.8 °F 60% 30.23 in 10.0 mi SE 15.0 mph 19.6 mph N/A   Clear
10:15 AM 66.2 °F - 51.8 °F 60% 30.24 in 10.0 mi SSE 16.1 mph 21.9 mph N/A   Clear
10:35 AM 68.0 °F - 51.8 °F 56% 30.24 in 9.0 mi SSE 13.8 mph 20.7 mph N/A   Clear
10:55 AM 68.0 °F - 51.8 °F 56% 30.23 in 10.0 mi ESE 12.7 mph 19.6 mph 0.06 in   Clear
11:15 AM 69.8 °F - 51.8 °F 53% 30.22 in 10.0 mi SE 12.7 mph 16.1 mph N/A   Clear
11:35 AM 71.6 °F - 51.8 °F 50% 30.22 in 10.0 mi SE 12.7 mph 19.6 mph N/A   Clear
11:55 AM 69.8 °F - 51.8 °F 53% 30.21 in 10.0 mi SSE 11.5 mph - N/A   Clear
12:15 PM 71.6 °F - 51.8 °F 50% 30.20 in 10.0 mi SE 16.1 mph - N/A   Unknown
12:35 PM 71.6 °F - 51.8 °F 50% 30.19 in 10.0 mi SSE 12.7 mph 18.4 mph N/A   Clear
12:55 PM 71.6 °F - 51.8 °F 50% 30.18 in 10.0 mi SE 12.7 mph - N/A   Clear
1:15 PM 71.6 °F - 51.8 °F 50% 30.16 in 10.0 mi SE 10.4 mph - N/A   Clear
1:35 PM 71.6 °F - 51.8 °F 50% 30.16 in 10.0 mi SE 9.2 mph - N/A   Clear
1:55 PM 71.6 °F - 51.8 °F 50% 30.16 in 10.0 mi SSE 8.1 mph - N/A   Clear
2:15 PM 71.6 °F - 51.8 °F 50% 30.16 in 10.0 mi SE 9.2 mph - N/A   Clear
2:35 PM 71.6 °F - 51.8 °F 50% 30.16 in 10.0 mi SSE 9.2 mph - N/A   Clear
2:55 PM 71.6 °F - 51.8 °F 50% 30.15 in 10.0 mi SSE 10.4 mph - N/A   Clear
3:15 PM 71.6 °F - 50.0 °F 46% 30.15 in 10.0 mi SSE 6.9 mph - N/A   Clear
3:35 PM 69.8 °F - 51.8 °F 53% 30.16 in 10.0 mi SSE 6.9 mph - N/A   Partly Cloudy
3:55 PM 69.8 °F - 51.8 °F 53% 30.15 in 10.0 mi SE 6.9 mph - N/A   Partly Cloudy
4:15 PM 69.8 °F - 51.8 °F 53% 30.15 in 10.0 mi SE 6.9 mph - N/A   Clear
4:35 PM 69.8 °F - 51.8 °F 53% 30.15 in 10.0 mi East 4.6 mph - N/A   Clear
4:55 PM 68.0 °F - 53.6 °F 60% 30.16 in 10.0 mi ESE 4.6 mph - N/A   Clear
5:15 PM 66.2 °F - 53.6 °F 64% 30.16 in 10.0 mi ESE 5.8 mph - N/A   Clear
5:35 PM 64.4 °F - 53.6 °F 68% 30.16 in 10.0 mi East 6.9 mph - N/A   Clear
5:55 PM 64.4 °F - 53.6 °F 68% 30.17 in 10.0 mi East 8.1 mph - N/A   Clear
6:15 PM 64.4 °F - 53.6 °F 68% 30.17 in 10.0 mi ESE 8.1 mph - N/A   Clear
6:35 PM 64.4 °F - 53.6 °F 68% 30.16 in 10.0 mi ESE 9.2 mph - N/A   Clear
6:55 PM 62.6 °F - 53.6 °F 72% 30.17 in 10.0 mi ESE 8.1 mph - N/A   Clear
7:15 PM 62.6 °F - 53.6 °F 72% 30.18 in 10.0 mi ESE 8.1 mph - N/A   Clear
7:35 PM 62.6 °F - 53.6 °F 72% 30.17 in 10.0 mi ESE 9.2 mph - N/A   Clear
7:55 PM 62.6 °F - 53.6 °F 72% 30.18 in 10.0 mi ESE 6.9 mph - N/A   Clear
8:15 PM 62.6 °F - 53.6 °F 72% 30.18 in 10.0 mi ESE 8.1 mph - N/A   Clear
8:35 PM 62.6 °F - 53.6 °F 72% 30.18 in 10.0 mi ESE 8.1 mph - N/A   Clear
8:55 PM 60.8 °F - 53.6 °F 77% 30.18 in 10.0 mi ESE 8.1 mph - N/A   Clear
9:15 PM 60.8 °F - 53.6 °F 77% 30.18 in 10.0 mi ESE 6.9 mph - N/A   Clear
9:35 PM 60.8 °F - 53.6 °F 77% 30.19 in 10.0 mi ESE 5.8 mph - N/A   Clear
9:55 PM 60.8 °F - 53.6 °F 77% 30.18 in 10.0 mi East 5.8 mph - N/A   Clear
10:15 PM 60.8 °F - 53.6 °F 77% 30.19 in 10.0 mi East 5.8 mph - N/A   Clear
10:35 PM 60.8 °F - 53.6 °F 77% 30.19 in 10.0 mi East 4.6 mph - N/A   Clear
10:55 PM 60.8 °F - 51.8 °F 72% 30.18 in 10.0 mi East 5.8 mph - N/A   Clear
11:15 PM 60.8 °F - 51.8 °F 72% 30.17 in 10.0 mi ESE 8.1 mph - N/A   Clear
11:35 PM 59.0 °F - 51.8 °F 77% 30.17 in 10.0 mi ESE 5.8 mph - N/A   Clear
11:55 PM 60.8 °F - 51.8 °F 72% 30.17 in 10.0 mi ESE 5.8 mph - N/A   Clear